Погода в Капри

Италия     40°33′04″N   14°14′24″E
темп.,
°C
ветер,
м/с
пор.,
м/с
влажн.,
%
обл.,
%
осадки,
мм/ч
давл.,
гПа
погр.,
м
25 октября, пн
пн2523:00+19св7116864 0.0 1017477
02:00+18всв796963 0.0 1017419
05:00+18св5664100 0.0 1017378
08:00+18ссв5664100 0.0 1017387
11:00+18ссв4462100 0.0 1017280
14:00+20всв6863100 0.0 1017488
17:00+20всв6863100 0.0 1016577
20:00+20ссв4563100 0.0 1017373
26 октября, вт
вт2623:00+19с3366100 0.0 1017225
02:00+19св4468100 0.0 1017304
05:00+19всв336895 0.0 1017352
08:00+19ссв2271100 0.1 1017320
11:00+19ссв2271100 0.0 1018344
14:00+18св2275100 0.1 1017317
17:00+18вюв3382100 0.4 1017367
20:00+18в4486100 1.3 1019388
27 октября, ср
ср2723:00+18св337797 0.0 1019516
02:00+18в5576100 0.1 1019511
05:00+18всв4575100 0.6 1018483
08:00+17св3474100 1.4 1019458
11:00+18в567099 0.3 1021612
14:00+18всв4568100 0.8 1020571
17:00+19в3463100 0.1 1019653
20:00+18всв4569100 0.5 1020452
28 октября, чт
чт2823:00+18всв336456 0.0 1021484
02:00+18всв4465100 0.0 1020456
05:00+18св2261100 0.0 1019415
08:00+18всв3363100 0.0 1020415
11:00+18в5565100 0.0 1020457
14:00+18всв125797 0.0 1019349
17:00+19зсз225853 0.0 1018204
20:00+19сз335942 0.0 1018294
29 октября, пт
пт2923:00+19вюв335818 0.0 1019462
02:00+19всв4459100 0.0 1018470
05:00+18св336190 0.0 1017340
08:00+18в326165 0.0 1017376
11:00+18всв4460100 0.0 1017403
14:00+18с345691 0.0 1016364
17:00+19зсз3355100 0.0 1015168
20:00+20зсз545992 0.0 1016284